Time,TemperatureF,DewpointF,PressureIn,WindDirection,WindDirectionDegrees,WindSpeedMPH,WindSpeedGustMPH,Humidity,HourlyPrecipIn,Conditions,Clouds,dailyrainin,SoftwareType,DateUTC
2018-04-25 00:10:00,49.6,40.0,30.24,SW,215,0.0,-999.0,69,-99.99,,,0.00,weatherlink.com 1.10,2018-04-25 04:10:00,
2018-04-25 00:25:00,49.5,40.0,30.24,SW,215,0.0,-999.0,71,-99.99,,,0.00,weatherlink.com 1.10,2018-04-25 04:25:00,
2018-04-25 00:40:00,49.4,40.0,30.23,SW,215,0.0,-999.0,71,-99.99,,,0.00,weatherlink.com 1.10,2018-04-25 04:40:00,
2018-04-25 00:55:00,49.3,41.0,30.23,SSW,196,0.0,-999.0,72,-99.99,,,0.00,weatherlink.com 1.10,2018-04-25 04:55:00,
2018-04-25 01:10:00,49.4,42.0,30.22,SSW,196,0.0,-999.0,75,-99.99,,,0.00,weatherlink.com 1.10,2018-04-25 05:10:00,
2018-04-25 01:26:00,49.6,43.0,30.21,South,173,0.0,-999.0,77,-99.99,,,0.00,weatherlink.com 1.10,2018-04-25 05:26:00,
2018-04-25 01:41:00,49.8,43.0,30.20,SSE,159,1.0,-999.0,78,-99.99,,,0.00,weatherlink.com 1.10,2018-04-25 05:41:00,
2018-04-25 01:56:00,50.1,44.0,30.19,SE,138,0.0,-999.0,79,-99.99,,,0.00,weatherlink.com 1.10,2018-04-25 05:56:00,
2018-04-25 02:11:00,50.3,44.0,30.18,SSE,150,0.0,-999.0,80,-99.99,,,0.00,weatherlink.com 1.10,2018-04-25 06:11:00,
2018-04-25 02:26:00,50.3,44.0,30.17,SE,144,2.0,-999.0,80,-99.99,,,0.00,weatherlink.com 1.10,2018-04-25 06:26:00,
2018-04-25 02:41:00,50.3,45.0,30.17,SSE,159,0.0,-999.0,81,-99.99,,,0.00,weatherlink.com 1.10,2018-04-25 06:41:00,
2018-04-25 02:56:00,50.3,45.0,30.16,SSE,159,0.0,-999.0,81,-99.99,,,0.00,weatherlink.com 1.10,2018-04-25 06:56:00,
2018-04-25 03:10:00,50.2,45.0,30.15,SE,129,0.0,-999.0,81,-99.99,,,0.00,weatherlink.com 1.10,2018-04-25 07:10:00,
2018-04-25 03:26:00,50.0,44.0,30.15,SE,130,0.0,-999.0,81,-99.99,,,0.00,weatherlink.com 1.10,2018-04-25 07:26:00,
2018-04-25 03:41:00,50.0,45.0,30.14,ESE,109,0.0,-999.0,82,-99.99,,,0.00,weatherlink.com 1.10,2018-04-25 07:41:00,
2018-04-25 03:56:00,50.1,45.0,30.13,SE,129,2.0,-999.0,82,-99.99,,,0.00,weatherlink.com 1.10,2018-04-25 07:56:00,
2018-04-25 04:11:00,50.7,45.0,30.12,SSW,194,0.0,-999.0,80,-99.99,,,0.00,weatherlink.com 1.10,2018-04-25 08:11:00,
2018-04-25 04:26:00,51.5,45.0,30.12,SE,145,2.0,-999.0,78,-99.99,,,0.00,weatherlink.com 1.10,2018-04-25 08:26:00,
2018-04-25 04:41:00,51.9,45.0,30.11,SSE,167,1.0,-999.0,77,-99.99,,,0.00,weatherlink.com 1.10,2018-04-25 08:41:00,
2018-04-25 04:56:00,52.1,45.0,30.11,South,173,7.0,-999.0,77,-99.99,,,0.00,weatherlink.com 1.10,2018-04-25 08:56:00,
2018-04-25 05:11:00,52.2,45.0,30.10,ESE,123,1.0,-999.0,77,-99.99,,,0.00,weatherlink.com 1.10,2018-04-25 09:11:00,
2018-04-25 05:26:00,52.2,46.0,30.10,ESE,123,2.0,-999.0,78,-99.99,,,0.00,weatherlink.com 1.10,2018-04-25 09:26:00,
2018-04-25 05:41:00,51.6,46.0,30.10,SE,133,3.0,-999.0,80,-99.99,,,0.01,weatherlink.com 1.10,2018-04-25 09:41:00,
2018-04-25 05:56:00,51.2,46.0,30.10,SE,140,3.0,-999.0,82,-99.99,,,0.01,weatherlink.com 1.10,2018-04-25 09:56:00,
2018-04-25 06:11:00,51.0,46.0,30.10,SE,128,10.0,-999.0,83,-99.99,,,0.02,weatherlink.com 1.10,2018-04-25 10:11:00,
2018-04-25 06:26:00,51.0,46.0,30.10,SE,142,4.0,-999.0,83,-99.99,,,0.03,weatherlink.com 1.10,2018-04-25 10:26:00,
2018-04-25 06:41:00,51.1,46.0,30.10,SE,127,7.0,-999.0,84,-99.99,,,0.03,weatherlink.com 1.10,2018-04-25 10:41:00,
2018-04-25 06:56:00,51.5,47.0,30.09,SSE,165,6.0,-999.0,83,-99.99,,,0.03,weatherlink.com 1.10,2018-04-25 10:56:00,
2018-04-25 07:11:00,51.7,47.0,30.10,South,170,2.0,-999.0,83,-99.99,,,0.03,weatherlink.com 1.10,2018-04-25 11:11:00,
2018-04-25 07:26:00,51.6,47.0,30.10,SE,138,7.0,-999.0,84,-99.99,,,0.03,weatherlink.com 1.10,2018-04-25 11:26:00,
2018-04-25 07:41:00,51.5,47.0,30.09,SE,140,3.0,-999.0,85,-99.99,,,0.04,weatherlink.com 1.10,2018-04-25 11:41:00,
2018-04-25 07:56:00,51.6,47.0,30.09,SSE,155,2.0,-999.0,85,-99.99,,,0.05,weatherlink.com 1.10,2018-04-25 11:56:00,
2018-04-25 08:11:00,51.6,48.0,30.09,SSE,148,4.0,-999.0,86,-99.99,,,0.05,weatherlink.com 1.10,2018-04-25 12:11:00,
2018-04-25 08:26:00,51.9,48.0,30.08,South,177,4.0,-999.0,86,-99.99,,,0.06,weatherlink.com 1.10,2018-04-25 12:26:00,
2018-04-25 08:42:00,52.1,48.0,30.07,SE,141,0.0,-999.0,87,-99.99,,,0.06,weatherlink.com 1.10,2018-04-25 12:42:00,
2018-04-25 08:57:00,52.4,49.0,30.07,SSE,168,6.0,-999.0,87,-99.99,,,0.06,weatherlink.com 1.10,2018-04-25 12:57:00,
2018-04-25 09:12:00,52.5,49.0,30.07,SSE,152,0.0,-999.0,87,-99.99,,,0.07,weatherlink.com 1.10,2018-04-25 13:12:00,
2018-04-25 09:27:00,52.6,49.0,30.06,SE,126,4.0,-999.0,87,-99.99,,,0.07,weatherlink.com 1.10,2018-04-25 13:27:00,
2018-04-25 09:42:00,53.2,50.0,30.05,SE,134,10.0,-999.0,87,-99.99,,,0.07,weatherlink.com 1.10,2018-04-25 13:42:00,
2018-04-25 09:57:00,53.6,50.0,30.05,ESE,121,6.0,-999.0,87,-99.99,,,0.07,weatherlink.com 1.10,2018-04-25 13:57:00,
2018-04-25 10:12:00,53.6,50.0,30.04,SE,146,1.0,-999.0,86,-99.99,,,0.07,weatherlink.com 1.10,2018-04-25 14:12:00,
2018-04-25 10:27:00,53.5,49.0,30.04,South,179,1.0,-999.0,85,-99.99,,,0.07,weatherlink.com 1.10,2018-04-25 14:27:00,
2018-04-25 10:42:00,53.8,50.0,30.03,SSE,153,3.0,-999.0,86,-99.99,,,0.07,weatherlink.com 1.10,2018-04-25 14:42:00,
2018-04-25 10:57:00,53.9,50.0,30.02,SSE,155,6.0,-999.0,86,-99.99,,,0.07,weatherlink.com 1.10,2018-04-25 14:57:00,
2018-04-25 11:12:00,54.2,50.0,30.02,SE,145,0.0,-999.0,85,-99.99,,,0.07,weatherlink.com 1.10,2018-04-25 15:12:00,
2018-04-25 11:27:00,54.5,50.0,30.01,South,172,6.0,-999.0,84,-99.99,,,0.07,weatherlink.com 1.10,2018-04-25 15:27:00,
2018-04-25 11:42:00,54.2,50.0,30.00,SE,128,1.0,-999.0,84,-99.99,,,0.07,weatherlink.com 1.10,2018-04-25 15:42:00,
2018-04-25 11:57:00,53.7,50.0,29.99,ESE,121,9.0,-999.0,86,-99.99,,,0.07,weatherlink.com 1.10,2018-04-25 15:57:00,
2018-04-25 12:12:00,53.5,50.0,29.98,SSE,153,5.0,-999.0,87,-99.99,,,0.08,weatherlink.com 1.10,2018-04-25 16:12:00,
2018-04-25 12:27:00,53.4,50.0,29.96,SSE,155,0.0,-999.0,87,-99.99,,,0.08,weatherlink.com 1.10,2018-04-25 16:27:00,
2018-04-25 12:42:00,53.7,50.0,29.95,ESE,123,9.0,-999.0,87,-99.99,,,0.08,weatherlink.com 1.10,2018-04-25 16:42:00,